Wind_Speed
8 8 8 7 6 5 5 4 4 4 4 3 3 2 3 3 3 3 3 3 2 2 2 2 2 1 1 0 1 1 2 2 2 2 2 2 2 2 2 3 2 2
9 9 9 8 7 6 6 5 5 5 4 4 3 3 3 4 3 3 3 3 2 2 1 1 2 2 1 1 2 2 2 3 3 3 2 2 2 2 2 2 1 2
9 9 9 8 8 8 7 6 5 5 5 4 4 4 4 4 4 4 4 3 3 2 2 2 3 3 3 3 3 3 3 3 3 3 2 2 2 3 3 3 1 1
10 9 9 9 9 9 8 7 6 6 5 5 5 5 5 4 5 5 5 4 4 3 3 3 4 4 4 4 4 4 4 4 4 4 3 3 3 3 4 3 3 1
10 10 9 9 9 9 8 8 8 7 7 7 7 6 6 6 6 6 5 5 5 4 4 5 5 5 5 5 4 4 4 4 4 4 3 3 4 4 4 4 4 3
11 10 9 9 9 9 9 9 9 9 8 8 8 7 7 7 7 6 6 6 5 5 5 6 6 6 6 6 6 5 5 5 4 4 4 4 4 4 4 4 4 4
12 11 10 10 9 9 10 9 10 10 9 9 9 8 8 8 8 8 7 7 6 6 7 7 7 8 8 7 7 7 7 7 5 4 4 4 4 4 4 4 5 5
13 12 11 11 10 10 10 10 10 10 10 10 10 9 9 10 9 9 9 8 8 8 8 8 8 9 9 9 8 8 8 8 7 6 6 5 5 5 5 5 5 5
14 14 13 13 12 12 12 11 11 11 11 11 11 11 11 11 10 10 10 9 9 10 10 10 10 10 10 10 10 10 9 9 9 9 8 7 7 7 7 7 6 6
15 15 15 15 15 15 14 13 13 12 12 12 12 12 12 12 12 12 11 11 11 11 11 11 11 11 11 11 11 11 11 10 10 10 10 10 9 9 9 9 8 8
16 16 16 16 16 16 16 15 14 14 14 14 14 14 14 14 14 14 13 13 13 12 13 13 13 12 12 12 12 12 12 12 12 12 12 12 11 11 11 11 10 10
16 16 16 17 17 17 16 16 16 15 15 15 15 15 15 15 16 15 16 15 14 14 14 14 15 15 14 14 13 13 13 13 13 13 12 12 12 13 13 13 13 13
16 15 15 15 14 15 15 16 16 16 16 16 16 16 16 16 17 17 17 17 16 16 16 16 17 17 16 15 15 15 15 14 14 14 14 13 13 14 14 14 15 15
16 15 14 13 13 13 13 14 15 16 16 17 17 17 17 17 18 18 18 18 18 18 18 18 18 17 17 17 16 16 16 16 16 16 16 16 15 15 15 16 16 17
16 15 15 15 14 14 15 15 15 15 15 15 16 16 16 17 18 18 18 18 18 19 20 19 18 18 18 18 18 18 18 18 18 18 18 18 18 18 17 17 18 18
16 17 18 17 17 16 16 16 16 15 15 15 15 16 16 17 18 18 18 18 19 21 21 20 19 19 19 19 19 19 19 19 19 20 21 21 20 20 20 20 20 19
18 21 21 20 20 19 18 18 18 18 17 17 17 17 17 17 18 18 18 19 20 21 21 20 20 20 20 21 21 21 20 20 21 22 23 23 22 22 22 21 21 21
19 21 19 19 20 21 21 21 21 21 21 20 20 20 19 19 19 19 19 21 22 23 24 24 23 23 22 22 22 23 22 22 23 23 23 24 24 24 24 23 22 22
18 18 16 15 16 18 19 21 22 23 23 23 23 22 22 22 23 24 23 23 24 25 26 27 26 26 25 24 24 25 25 25 26 26 25 25 25 25 25 25 24 24
15 16 15 15 16 17 18 20 21 23 23 22 23 23 23 24 26 27 26 25 25 26 26 26 26 27 27 25 25 26 27 28 29 29 30 29 28 27 26 25 25 26
14 15 17 18 19 19 20 20 22 23 23 21 22 22 23 24 25 27 28 28 27 28 27 26 27 27 27 27 26 26 28 30 32 33 34 34 32 29 29 28 28 27
16 18 20 21 21 21 21 23 23 23 22 22 21 22 23 24 25 26 27 27 27 27 27 28 28 29 30 30 29 28 28 30 32 34 36 36 34 32 31 31 31 30
20 21 21 21 21 21 22 23 23 21 21 22 22 22 23 23 24 25 25 26 27 27 26 27 28 30 31 31 32 31 31 32 34 35 35 36 36 34 32 32 33 33
23 23 22 21 22 23 23 23 23 22 21 22 22 23 24 24 24 24 24 26 28 27 26 27 27 28 29 30 31 30 30 31 33 34 34 34 34 34 33 33 34 35
28 28 28 26 25 26 26 25 25 24 24 23 23 24 25 26 26 26 27 28 28 27 27 28 28 28 29 31 31 29 28 29 30 32 33 34 35 35 35 34 35 35
33 34 33 31 30 30 29 29 28 28 28 27 26 27 28 29 30 30 30 29 29 28 28 29 30 30 31 32 32 31 30 30 32 34 35 35 35 35 35 35 36 36
Wind_Direction
191 190 191 193 196 198 195 199 212 217 215 206 208 209 188 174 168 167 167 164 163 154 151 164 171 164 154 101 359 359 4 360 360 17 31 24 12 360 355 5 1 352
195 195 195 195 197 201 200 203 214 219 218 209 209 222 217 196 185 187 185 178 180 188 198 217 239 253 282 318 319 322 337 340 338 349 5 350 332 324 323 327 333 356
196 200 201 199 198 202 204 205 210 215 217 218 218 222 227 222 209 201 199 198 197 205 222 244 263 280 294 305 307 312 324 328 328 339 348 323 306 303 301 297 292 11
196 201 205 207 205 204 204 203 207 212 213 217 223 225 226 230 227 217 212 215 215 216 229 247 261 275 284 291 300 306 314 320 324 331 335 316 298 293 292 295 294 270
197 198 204 210 212 211 208 205 206 211 213 215 220 224 224 228 233 230 225 226 230 233 242 253 261 268 274 280 286 289 294 303 311 319 324 320 315 306 301 302 294 279
202 200 202 208 212 215 215 214 213 212 213 218 221 222 224 228 230 229 230 234 239 243 248 256 263 266 269 274 275 275 279 284 290 301 304 307 312 311 311 306 297 297
209 207 206 209 212 216 218 220 222 219 217 223 226 224 224 227 227 225 230 237 243 249 253 257 262 266 268 269 268 267 270 272 275 281 284 287 295 300 305 307 303 306
216 216 216 216 216 218 220 223 226 225 226 229 231 230 227 227 230 229 230 234 239 249 257 260 262 267 271 270 267 265 266 270 273 272 273 277 287 293 295 297 297 300
220 222 224 225 225 224 223 224 226 229 232 234 236 237 235 234 237 236 234 235 239 246 253 258 261 267 273 273 271 269 267 269 273 274 275 276 282 289 291 291 291 294
222 223 226 229 230 231 229 228 229 230 233 237 239 241 242 242 241 239 238 239 241 245 249 253 256 260 266 269 270 271 271 272 275 277 279 281 284 287 287 288 290 290
225 225 227 229 232 235 236 235 234 234 235 237 239 241 242 243 243 242 242 241 241 245 248 251 252 253 256 260 263 266 269 271 272 274 277 281 282 282 283 286 287 285
225 226 227 229 232 237 239 240 240 239 239 239 240 242 242 243 244 244 244 244 242 243 246 250 252 253 254 256 259 262 263 266 268 270 274 276 276 279 284 288 287 286
225 228 231 233 235 238 242 245 246 245 243 243 242 243 243 244 246 246 247 249 246 243 244 247 251 254 256 257 258 260 262 263 265 268 272 275 276 280 283 284 284 286
226 229 233 236 236 238 241 243 246 247 246 246 246 245 245 247 249 249 250 252 251 250 249 250 253 256 259 260 261 263 265 266 268 269 271 273 274 276 278 280 282 284
228 233 235 236 236 238 240 241 244 246 247 248 247 246 246 248 252 254 255 256 258 258 258 257 259 262 265 267 267 266 268 268 270 271 270 271 273 274 276 278 280 282
234 239 239 240 241 242 244 247 248 250 251 252 250 247 245 245 249 253 254 257 259 259 259 261 264 266 265 266 267 267 266 265 266 268 268 268 269 271 272 274 277 279
235 240 240 243 243 243 246 249 250 252 254 256 257 257 255 252 252 252 248 247 248 248 249 255 262 262 259 260 264 264 263 262 264 265 266 267 267 267 269 270 272 275
233 239 240 241 241 241 246 250 252 253 254 256 258 260 261 261 262 259 252 244 240 239 242 250 255 254 254 258 262 261 262 265 266 264 264 267 268 268 269 269 271 273
225 237 243 245 245 246 250 253 254 256 256 257 258 258 259 260 260 259 255 250 245 243 246 250 254 255 255 257 258 259 262 265 265 263 263 266 268 269 270 270 270 271
211 233 248 253 254 254 255 256 257 259 259 260 261 261 260 259 257 256 254 252 251 251 251 253 257 260 260 259 258 259 262 264 263 261 263 266 269 270 270 269 269 270
214 230 242 247 250 254 257 259 261 261 262 264 264 263 261 257 256 255 254 253 254 255 256 256 258 258 259 262 263 261 261 262 264 265 267 269 270 269 268 269 270 271
241 241 243 245 248 252 255 258 259 258 259 262 263 262 259 257 257 257 257 257 256 256 257 258 258 257 259 263 267 266 264 264 266 269 271 272 272 270 269 269 269 269
262 256 253 253 252 254 255 256 258 257 255 257 259 259 259 261 262 262 261 261 258 257 257 257 258 259 260 263 266 268 268 267 269 272 273 274 274 273 272 271 269 267
267 265 265 264 259 258 259 257 258 260 259 258 257 258 261 263 264 263 264 265 263 260 260 260 260 262 263 264 264 265 266 266 268 271 272 273 273 274 273 272 270 268
265 266 269 269 264 262 262 261 261 262 262 260 259 261 264 264 264 263 265 266 265 264 264 263 262 262 263 264 265 265 265 265 266 267 269 271 273 274 273 272 270 269
266 267 269 270 268 266 266 266 266 263 261 260 260 262 264 264 264 263 262 262 262 261 261 260 259 260 261 262 264 265 266 266 266 267 269 271 273 273 273 271 269 268
Height
5955 5956 5957 5958 5959 5960 5961 5961 5962 5962 5963 5964 5965 5965 5966 5966 5967 5967 5968 5968 5969 5969 5969 5969 5970 5970 5970 5970 5970 5970 5970 5970 5970 5970 5970 5970 5970 5970 5970 5970 5971 5971
5954 5955 5956 5957 5958 5959 5960 5961 5962 5962 5963 5963 5964 5965 5965 5966 5967 5967 5968 5968 5968 5969 5969 5969 5969 5970 5970 5970 5970 5970 5970 5970 5969 5970 5970 5969 5969 5969 5969 5970 5970 5971
5953 5954 5955 5956 5957 5958 5959 5960 5961 5962 5962 5963 5964 5964 5965 5966 5966 5967 5967 5967 5968 5968 5969 5969 5969 5969 5969 5969 5969 5969 5969 5969 5969 5969 5969 5969 5968 5968 5968 5969 5969 5970
5952 5953 5954 5955 5956 5957 5958 5959 5960 5961 5962 5962 5963 5964 5965 5966 5966 5966 5967 5967 5968 5968 5968 5968 5969 5969 5969 5969 5969 5969 5969 5969 5969 5969 5969 5969 5968 5968 5968 5968 5968 5969
5950 5952 5953 5954 5955 5956 5957 5958 5959 5960 5961 5962 5962 5963 5964 5965 5966 5966 5967 5967 5967 5968 5968 5968 5968 5968 5968 5968 5968 5968 5968 5969 5969 5969 5969 5968 5968 5968 5967 5967 5967 5968
5949 5950 5951 5953 5954 5955 5956 5957 5957 5958 5959 5960 5961 5962 5963 5964 5965 5965 5966 5967 5967 5967 5967 5967 5967 5967 5967 5968 5968 5968 5968 5968 5968 5968 5968 5968 5968 5967 5967 5967 5967 5967
5948 5949 5950 5951 5952 5953 5954 5955 5956 5957 5958 5959 5960 5961 5962 5963 5964 5965 5965 5966 5966 5966 5967 5967 5967 5966 5967 5967 5967 5967 5967 5967 5967 5967 5967 5967 5967 5966 5966 5966 5965 5965
5946 5947 5948 5949 5950 5951 5952 5953 5954 5955 5956 5957 5958 5959 5960 5961 5962 5963 5964 5964 5965 5965 5966 5966 5966 5966 5966 5966 5966 5966 5966 5966 5966 5966 5966 5965 5965 5965 5965 5964 5964 5964
5944 5945 5946 5947 5948 5949 5950 5951 5952 5953 5954 5955 5956 5957 5958 5959 5960 5961 5962 5963 5963 5964 5964 5965 5965 5965 5965 5965 5965 5965 5965 5965 5965 5965 5965 5964 5964 5963 5963 5963 5963 5962
5942 5943 5944 5945 5946 5947 5948 5949 5950 5951 5952 5953 5954 5955 5956 5957 5958 5959 5959 5961 5961 5962 5963 5963 5964 5964 5964 5964 5965 5964 5964 5964 5964 5964 5964 5963 5963 5963 5962 5962 5961 5961
5940 5941 5942 5943 5944 5945 5946 5947 5948 5949 5950 5951 5952 5953 5954 5955 5956 5956 5957 5958 5959 5960 5960 5961 5962 5963 5963 5963 5963 5963 5963 5963 5963 5963 5962 5962 5962 5962 5961 5961 5960 5960
5937 5939 5940 5941 5942 5943 5944 5945 5946 5947 5948 5949 5950 5951 5952 5953 5953 5954 5955 5956 5957 5957 5958 5958 5959 5960 5961 5961 5962 5962 5962 5961 5961 5961 5961 5961 5960 5960 5960 5960 5960 5959
5936 5937 5939 5940 5941 5942 5943 5944 5944 5945 5946 5947 5948 5949 5950 5951 5951 5952 5953 5953 5954 5955 5955 5956 5956 5957 5958 5959 5960 5960 5960 5960 5960 5959 5959 5959 5959 5959 5959 5959 5959 5959
5934 5936 5937 5938 5939 5940 5941 5942 5942 5943 5943 5944 5945 5946 5947 5949 5949 5950 5951 5951 5952 5952 5953 5953 5954 5954 5955 5956 5957 5958 5959 5959 5959 5959 5958 5958 5958 5958 5958 5958 5958 5958
5933 5934 5935 5935 5936 5937 5938 5939 5939 5940 5941 5941 5942 5943 5945 5946 5947 5948 5950 5950 5951 5951 5951 5951 5952 5953 5954 5955 5955 5956 5956 5957 5957 5958 5958 5957 5957 5957 5957 5957 5957 5957
5931 5932 5932 5933 5934 5935 5936 5936 5937 5938 5939 5939 5939 5940 5942 5943 5944 5946 5948 5948 5948 5949 5950 5950 5950 5951 5952 5952 5952 5953 5953 5954 5954 5955 5955 5955 5955 5955 5955 5955 5956 5956
5927 5927 5929 5931 5932 5933 5933 5934 5935 5935 5936 5937 5938 5938 5939 5940 5940 5941 5942 5943 5943 5944 5946 5947 5947 5948 5948 5949 5949 5950 5950 5951 5951 5951 5951 5951 5952 5952 5952 5952 5953 5954
5923 5923 5925 5927 5929 5930 5931 5931 5932 5932 5933 5935 5936 5936 5937 5938 5938 5938 5938 5939 5939 5939 5941 5942 5943 5944 5945 5945 5946 5946 5947 5948 5948 5948 5948 5948 5948 5949 5949 5949 5950 5951
5920 5920 5922 5924 5925 5927 5928 5929 5929 5929 5930 5931 5932 5934 5934 5935 5934 5934 5935 5936 5936 5937 5938 5939 5939 5940 5941 5942 5943 5943 5944 5945 5945 5945 5945 5945 5945 5946 5947 5947 5948 5948
5919 5918 5919 5921 5922 5923 5924 5925 5925 5925 5927 5928 5929 5930 5931 5931 5930 5930 5931 5933 5934 5934 5935 5936 5936 5937 5938 5939 5940 5940 5940 5940 5940 5941 5941 5942 5942 5944 5944 5944 5945 5945
5916 5917 5917 5918 5919 5920 5921 5921 5921 5922 5923 5925 5926 5927 5927 5926 5926 5926 5927 5929 5931 5931 5932 5933 5933 5933 5934 5935 5936 5937 5937 5936 5936 5936 5937 5937 5939 5940 5941 5941 5942 5942
5910 5913 5914 5914 5915 5917 5918 5918 5918 5920 5921 5922 5922 5923 5923 5922 5923 5924 5925 5926 5927 5927 5928 5928 5929 5929 5930 5930 5931 5932 5933 5932 5931 5931 5932 5932 5934 5935 5936 5936 5937 5938
5906 5908 5909 5910 5911 5913 5915 5915 5915 5916 5918 5919 5919 5919 5919 5919 5920 5922 5922 5922 5922 5922 5923 5924 5924 5925 5925 5926 5926 5927 5928 5928 5927 5927 5928 5928 5929 5930 5931 5932 5932 5933
5902 5903 5905 5907 5908 5909 5910 5911 5911 5912 5913 5914 5914 5915 5915 5917 5918 5918 5918 5917 5916 5918 5920 5921 5921 5921 5922 5922 5922 5923 5923 5923 5923 5924 5924 5924 5924 5924 5925 5926 5926 5927
5899 5901 5902 5903 5904 5905 5906 5907 5908 5908 5909 5909 5910 5911 5911 5912 5913 5914 5914 5913 5914 5915 5917 5918 5917 5918 5918 5918 5918 5918 5919 5920 5920 5920 5920 5920 5919 5919 5919 5920 5920 5921
5896 5898 5899 5900 5901 5901 5902 5902 5903 5904 5905 5906 5907 5907 5907 5907 5908 5909 5909 5910 5911 5912 5913 5913 5913 5913 5913 5914 5914 5915 5915 5915 5915 5914 5914 5914 5914 5914 5914 5914 5915 5915